This is the latest recevied weather packets stored in our database for station/object KC3LDA. If no packets are shown the sender has not sent any weather packets the latest 10 day(s).
| Time | Temp. | Humidity | Pressure | Rain* | Wind** | Luminosity | Snow |
|---|---|---|---|---|---|---|---|
| 1777723368 | 10.56° C | 97% | 1009.1 hPa | 0 mm | - | 156 W/m² | - |
| 1777723066 | 10.56° C | 97% | 1009.2 hPa | 0 mm | - | 105 W/m² | - |
| 1777722762 | 10° C | 97% | 1009.3 hPa | 0 mm | - | 89 W/m² | - |
| 1777722458 | 10° C | 97% | 1009.3 hPa | 0 mm | - | 88 W/m² | - |
| 1777722155 | 10° C | 97% | 1009.3 hPa | 0 mm | - | 65 W/m² | - |
| 1777721852 | 10° C | 97% | 1009 hPa | 0 mm | - | 58 W/m² | - |
| 1777721550 | 10° C | 97% | 1008.9 hPa | 0 mm | - | 46 W/m² | - |
| 1777721248 | 10° C | 97% | 1008.6 hPa | 0 mm | - | 46 W/m² | - |
| 1777720945 | 10° C | 97% | 1008.7 hPa | 0 mm | - | 31 W/m² | - |
| 1777720642 | 10° C | 97% | 1008.7 hPa | 0 mm | - | 32 W/m² | - |
| 1777720340 | 10° C | 97% | 1008.7 hPa | 0 mm | - | 22 W/m² | - |
| 1777720037 | 10° C | 96% | 1008.7 hPa | 1.27 mm | - | 20 W/m² | - |
| 1777719735 | 10° C | 95% | 1008.3 hPa | 1.78 mm | - | 23 W/m² | - |
| 1777719433 | 10° C | 95% | 1008.7 hPa | 0.51 mm | - | 32 W/m² | - |
| 1777719129 | 10° C | 94% | 1008.7 hPa | 3.05 mm | - | 11 W/m² | - |
| 1777718827 | 10° C | 94% | 1008.6 hPa | 1.78 mm | - | 16 W/m² | - |
| 1777718524 | 10° C | 94% | 1008.8 hPa | 0 mm | - | 8 W/m² | - |
| 1777718221 | 10° C | 93% | 1009 hPa | 0 mm | - | 8 W/m² | - |
| 1777717919 | 10° C | 93% | 1008.8 hPa | 0 mm | - | 6 W/m² | - |
| 1777717615 | 10° C | 93% | 1008.7 hPa | 0 mm | - | 11 W/m² | - |
| 1777717312 | 10° C | 93% | 1008.8 hPa | 0 mm | - | 21 W/m² | - |
| 1777717010 | 10° C | 93% | 1008.5 hPa | 0 mm | - | 16 W/m² | - |
| 1777716708 | 10° C | 92% | 1008.9 hPa | 0 mm | - | 10 W/m² | - |
| 1777716406 | 10° C | 92% | 1008.8 hPa | 0 mm | - | 5 W/m² | - |
| 1777716104 | 10° C | 92% | 1008.9 hPa | 0 mm | - | 4 W/m² | - |
* Rain latest hour (hover to see other rain measurements)
** Current wind speed in m/s (hover to see current wind gust speed)